Time,TemperatureF,DewpointF,PressureIn,WindDirection,WindDirectionDegrees,WindSpeedMPH,WindSpeedGustMPH,Humidity,HourlyPrecipIn,Conditions,Clouds,dailyrainin,SoftwareType,DateUTC
2013-06-28 00:08:00,77.9,73.7,29.71,WNW,292,0.0,-999.0,87,-99.99,,,0.00,Acu-Link.com,2013-06-28 04:08:00,
2013-06-28 00:24:00,77.5,73.3,29.70,WNW,292,0.0,-999.0,87,-99.99,,,0.00,Acu-Link.com,2013-06-28 04:24:00,
2013-06-28 00:39:00,77.5,73.3,29.71,NNW,337,0.0,-999.0,87,-99.99,,,0.00,Acu-Link.com,2013-06-28 04:39:00,
2013-06-28 00:54:00,77.7,73.2,29.70,NNW,337,0.0,-999.0,86,-99.99,,,0.00,Acu-Link.com,2013-06-28 04:54:00,
2013-06-28 01:10:00,78.1,73.2,29.69,NNW,337,0.0,-999.0,85,-99.99,,,0.00,Acu-Link.com,2013-06-28 05:10:00,
2013-06-28 01:25:00,77.7,72.8,29.69,West,270,0.0,-999.0,85,-99.99,,,0.00,Acu-Link.com,2013-06-28 05:25:00,
2013-06-28 01:40:00,77.2,72.7,29.69,ENE,67,0.0,-999.0,86,-99.99,,,0.00,Acu-Link.com,2013-06-28 05:40:00,
2013-06-28 01:56:00,76.6,72.4,29.70,South,180,0.0,-999.0,87,-99.99,,,0.00,Acu-Link.com,2013-06-28 05:56:00,
2013-06-28 02:11:00,75.9,72.4,29.69,SSW,202,0.0,-999.0,89,-99.99,,,0.00,Acu-Link.com,2013-06-28 06:11:00,
2013-06-28 02:26:00,75.4,71.9,29.69,SSW,202,0.0,-999.0,89,-99.99,,,0.00,Acu-Link.com,2013-06-28 06:26:00,
2013-06-28 02:42:00,74.8,72.0,29.69,SSW,202,0.0,-999.0,91,-99.99,,,0.00,Acu-Link.com,2013-06-28 06:42:00,
2013-06-28 02:57:00,74.3,71.8,29.69,SSW,202,0.0,-999.0,92,-99.99,,,0.00,Acu-Link.com,2013-06-28 06:57:00,
2013-06-28 03:12:00,74.1,71.9,29.69,SSW,202,0.0,-999.0,93,-99.99,,,0.00,Acu-Link.com,2013-06-28 07:12:00,
2013-06-28 03:27:00,73.8,71.3,29.68,SSW,202,0.0,-999.0,92,-99.99,,,0.00,Acu-Link.com,2013-06-28 07:27:00,
2013-06-28 03:43:00,73.4,71.2,29.68,East,90,0.0,-999.0,93,-99.99,,,0.00,Acu-Link.com,2013-06-28 07:43:00,
2013-06-28 03:58:00,73.0,71.2,29.68,SSW,202,0.0,-999.0,94,-99.99,,,0.00,Acu-Link.com,2013-06-28 07:58:00,
2013-06-28 04:14:00,73.0,71.2,29.67,ESE,112,0.0,-999.0,94,-99.99,,,0.00,Acu-Link.com,2013-06-28 08:14:00,
2013-06-28 04:29:00,72.9,71.1,29.67,SSE,157,0.0,-999.0,94,-99.99,,,0.00,Acu-Link.com,2013-06-28 08:29:00,
2013-06-28 04:45:00,72.5,70.7,29.67,SW,225,0.0,-999.0,94,-99.99,,,0.00,Acu-Link.com,2013-06-28 08:45:00,
2013-06-28 05:00:00,72.1,70.3,29.67,SSW,202,0.0,-999.0,94,-99.99,,,0.00,Acu-Link.com,2013-06-28 09:00:00,
2013-06-28 05:15:00,71.6,70.1,29.66,SW,225,0.0,-999.0,95,-99.99,,,0.00,Acu-Link.com,2013-06-28 09:15:00,
2013-06-28 05:30:00,71.6,70.4,29.66,SW,225,0.0,-999.0,96,-99.99,,,0.00,Acu-Link.com,2013-06-28 09:30:00,
2013-06-28 05:45:00,71.4,70.2,29.66,SSW,202,0.0,-999.0,96,-99.99,,,0.00,Acu-Link.com,2013-06-28 09:45:00,
2013-06-28 06:01:00,71.4,70.2,29.67,SSW,202,0.0,-999.0,96,-99.99,,,0.00,Acu-Link.com,2013-06-28 10:01:00,
2013-06-28 06:16:00,71.4,70.2,29.68,SSW,202,0.0,-999.0,96,-99.99,,,0.00,Acu-Link.com,2013-06-28 10:16:00,
2013-06-28 06:31:00,71.1,69.9,29.68,SSW,202,0.0,-999.0,96,-99.99,,,0.00,Acu-Link.com,2013-06-28 10:31:00,
2013-06-28 06:47:00,71.1,69.9,29.67,SSW,202,0.0,-999.0,96,-99.99,,,0.00,Acu-Link.com,2013-06-28 10:47:00,
2013-06-28 07:02:00,71.1,70.2,29.67,West,270,0.0,-999.0,97,-99.99,,,0.00,Acu-Link.com,2013-06-28 11:02:00,
2013-06-28 07:17:00,71.4,70.5,29.67,West,270,0.0,-999.0,97,-99.99,,,0.00,Acu-Link.com,2013-06-28 11:17:00,
2013-06-28 07:32:00,71.8,70.9,29.67,WNW,292,0.0,-999.0,97,-99.99,,,0.00,Acu-Link.com,2013-06-28 11:32:00,
2013-06-28 07:48:00,72.5,71.3,29.67,NE,45,0.0,-999.0,96,-99.99,,,0.00,Acu-Link.com,2013-06-28 11:48:00,
2013-06-28 08:03:00,73.6,72.1,29.66,East,90,0.0,-999.0,95,-99.99,,,0.00,Acu-Link.com,2013-06-28 12:03:00,
2013-06-28 08:18:00,77.2,73.7,29.66,WSW,247,0.0,-999.0,89,-99.99,,,0.00,Acu-Link.com,2013-06-28 12:18:00,
2013-06-28 08:34:00,81.0,73.9,29.67,NNE,22,0.0,-999.0,79,-99.99,,,0.00,Acu-Link.com,2013-06-28 12:34:00,
2013-06-28 08:49:00,81.9,74.3,29.66,West,270,0.0,-999.0,78,-99.99,,,0.00,Acu-Link.com,2013-06-28 12:49:00,
2013-06-28 09:04:00,82.0,73.7,29.66,NE,45,0.0,-999.0,76,-99.99,,,0.00,Acu-Link.com,2013-06-28 13:04:00,
2013-06-28 09:19:00,82.2,74.6,29.67,West,270,0.0,-999.0,78,-99.99,,,0.00,Acu-Link.com,2013-06-28 13:19:00,
2013-06-28 09:35:00,81.9,74.3,29.65,ESE,112,0.0,-999.0,78,-99.99,,,0.00,Acu-Link.com,2013-06-28 13:35:00,
2013-06-28 09:50:00,81.9,74.7,29.66,East,90,0.0,-999.0,79,-99.99,,,0.00,Acu-Link.com,2013-06-28 13:50:00,
2013-06-28 10:05:00,82.2,74.6,29.66,West,270,0.0,-999.0,78,-99.99,,,0.00,Acu-Link.com,2013-06-28 14:05:00,
2013-06-28 10:20:00,82.9,74.5,29.65,WSW,247,0.0,-999.0,76,-99.99,,,0.00,Acu-Link.com,2013-06-28 14:20:00,
2013-06-28 10:36:00,83.5,75.5,29.64,West,270,0.0,-999.0,77,-99.99,,,0.00,Acu-Link.com,2013-06-28 14:36:00,
2013-06-28 10:51:00,84.0,74.0,29.65,WNW,292,0.0,-999.0,72,-99.99,,,0.00,Acu-Link.com,2013-06-28 14:51:00,
2013-06-28 11:06:00,83.7,75.3,29.65,SSW,202,0.0,-999.0,76,-99.99,,,0.00,Acu-Link.com,2013-06-28 15:06:00,
2013-06-28 11:22:00,84.4,74.8,29.64,WSW,247,0.0,-999.0,73,-99.99,,,0.00,Acu-Link.com,2013-06-28 15:22:00,
2013-06-28 11:37:00,84.6,75.4,29.64,ENE,67,0.0,-999.0,74,-99.99,,,0.00,Acu-Link.com,2013-06-28 15:37:00,
2013-06-28 11:52:00,85.6,75.1,29.64,South,180,0.0,-999.0,71,-99.99,,,0.00,Acu-Link.com,2013-06-28 15:52:00,
2013-06-28 12:07:00,85.8,75.3,29.63,East,90,1.7,-999.0,71,-99.99,,,0.00,Acu-Link.com,2013-06-28 16:07:00,
2013-06-28 12:23:00,85.6,74.7,29.63,South,180,0.0,-999.0,70,-99.99,,,0.00,Acu-Link.com,2013-06-28 16:23:00,
2013-06-28 12:38:00,86.7,76.6,29.63,South,180,0.0,-999.0,72,-99.99,,,0.00,Acu-Link.com,2013-06-28 16:38:00,
2013-06-28 12:53:00,87.1,76.5,29.62,West,270,0.0,-999.0,71,-99.99,,,0.00,Acu-Link.com,2013-06-28 16:53:00,
2013-06-28 13:09:00,89.1,77.1,29.62,East,90,0.0,-999.0,68,-99.99,,,0.00,Acu-Link.com,2013-06-28 17:09:00,
2013-06-28 13:24:00,89.4,77.0,29.61,SW,225,1.7,-999.0,67,-99.99,,,0.00,Acu-Link.com,2013-06-28 17:24:00,
2013-06-28 13:39:00,88.9,76.9,29.61,SSE,157,0.0,-999.0,68,-99.99,,,0.00,Acu-Link.com,2013-06-28 17:39:00,
2013-06-28 13:55:00,90.3,75.5,29.60,West,270,1.7,-999.0,62,-99.99,,,0.00,Acu-Link.com,2013-06-28 17:55:00,
2013-06-28 14:10:00,91.4,77.5,29.58,ENE,67,0.0,-999.0,64,-99.99,,,0.00,Acu-Link.com,2013-06-28 18:10:00,
2013-06-28 14:25:00,94.5,77.9,29.57,ESE,112,0.0,-999.0,59,-99.99,,,0.00,Acu-Link.com,2013-06-28 18:25:00,
2013-06-28 14:40:00,94.8,75.0,29.56,WNW,292,1.7,-999.0,53,-99.99,,,0.00,Acu-Link.com,2013-06-28 18:40:00,
2013-06-28 14:56:00,94.5,76.3,29.55,WNW,292,0.0,-999.0,56,-99.99,,,0.00,Acu-Link.com,2013-06-28 18:56:00,
2013-06-28 15:11:00,93.4,76.9,29.55,SW,225,0.0,-999.0,59,-99.99,,,0.00,Acu-Link.com,2013-06-28 19:11:00,
2013-06-28 15:26:00,93.9,75.8,29.53,West,270,2.2,-999.0,56,-99.99,,,0.00,Acu-Link.com,2013-06-28 19:26:00,
2013-06-28 15:42:00,94.3,74.5,29.53,ENE,67,0.0,-999.0,53,-99.99,,,0.00,Acu-Link.com,2013-06-28 19:42:00,
2013-06-28 15:57:00,94.3,75.1,29.53,ESE,112,0.0,-999.0,54,-99.99,,,0.00,Acu-Link.com,2013-06-28 19:57:00,
2013-06-28 16:12:00,92.8,74.2,29.52,NE,45,0.0,-999.0,55,-99.99,,,0.00,Acu-Link.com,2013-06-28 20:12:00,
2013-06-28 16:28:00,92.7,74.7,29.52,South,180,0.0,-999.0,56,-99.99,,,0.00,Acu-Link.com,2013-06-28 20:28:00,
2013-06-28 16:43:00,92.3,74.8,29.51,SSW,202,0.0,-999.0,57,-99.99,,,0.00,Acu-Link.com,2013-06-28 20:43:00,
2013-06-28 16:58:00,91.2,74.8,29.52,SSW,202,0.0,-999.0,59,-99.99,,,0.00,Acu-Link.com,2013-06-28 20:58:00,
2013-06-28 17:13:00,89.8,74.0,29.52,SSW,202,0.0,-999.0,60,-99.99,,,0.00,Acu-Link.com,2013-06-28 21:13:00,
2013-06-28 17:28:00,89.2,74.0,29.53,ESE,112,0.0,-999.0,61,-99.99,,,0.00,Acu-Link.com,2013-06-28 21:28:00,
2013-06-28 17:44:00,88.7,74.0,29.52,ENE,67,0.0,-999.0,62,-99.99,,,0.00,Acu-Link.com,2013-06-28 21:44:00,
2013-06-28 17:59:00,86.4,74.1,29.51,SSE,157,0.0,-999.0,67,-99.99,,,0.00,Acu-Link.com,2013-06-28 21:59:00,
2013-06-28 18:14:00,86.2,73.9,29.51,WSW,247,0.0,-999.0,67,-99.99,,,0.00,Acu-Link.com,2013-06-28 22:14:00,
2013-06-28 18:29:00,85.8,73.5,29.51,SW,225,0.0,-999.0,67,-99.99,,,0.00,Acu-Link.com,2013-06-28 22:29:00,
2013-06-28 18:45:00,84.7,72.5,29.50,WSW,247,0.0,-999.0,67,-99.99,,,0.00,Acu-Link.com,2013-06-28 22:45:00,
2013-06-28 19:00:00,84.2,72.5,29.52,SSW,202,0.0,-999.0,68,-99.99,,,0.00,Acu-Link.com,2013-06-28 23:00:00,
2013-06-28 19:15:00,83.7,72.4,29.53,NW,315,0.0,-999.0,69,-99.99,,,0.00,Acu-Link.com,2013-06-28 23:15:00,
2013-06-28 19:30:00,83.7,72.0,29.56,West,270,4.7,-999.0,68,-99.99,,,0.00,Acu-Link.com,2013-06-28 23:30:00,
2013-06-28 19:46:00,82.9,71.7,29.57,SSW,202,0.0,-999.0,69,-99.99,,,0.00,Acu-Link.com,2013-06-28 23:46:00,
2013-06-28 20:01:00,79.7,71.4,29.59,SSW,202,0.0,-999.0,76,-99.99,,,0.00,Acu-Link.com,2013-06-29 00:01:00,
2013-06-28 20:16:00,76.1,72.3,29.58,SSW,202,0.0,-999.0,88,-99.99,,,0.01,Acu-Link.com,2013-06-29 00:16:00,
2013-06-28 20:32:00,73.8,71.0,29.56,South,180,1.7,-999.0,91,-99.99,,,0.01,Acu-Link.com,2013-06-29 00:32:00,
2013-06-28 20:47:00,73.4,70.9,29.57,ESE,112,0.0,-999.0,92,-99.99,,,0.01,Acu-Link.com,2013-06-29 00:47:00,
2013-06-28 21:02:00,72.9,71.1,29.56,SSW,202,0.0,-999.0,94,-99.99,,,0.01,Acu-Link.com,2013-06-29 01:02:00,
2013-06-28 21:17:00,72.3,70.8,29.57,SSW,202,0.0,-999.0,95,-99.99,,,0.01,Acu-Link.com,2013-06-29 01:17:00,
2013-06-28 21:33:00,72.1,70.9,29.57,NNW,337,0.0,-999.0,96,-99.99,,,0.01,Acu-Link.com,2013-06-29 01:33:00,
2013-06-28 21:48:00,72.1,71.2,29.57,SSW,202,0.0,-999.0,97,-99.99,,,0.01,Acu-Link.com,2013-06-29 01:48:00,
2013-06-28 22:03:00,72.1,71.5,29.57,SSW,202,0.0,-999.0,98,-99.99,,,0.01,Acu-Link.com,2013-06-29 02:03:00,
2013-06-28 22:18:00,72.3,71.7,29.58,SSW,202,0.0,-999.0,98,-99.99,,,0.01,Acu-Link.com,2013-06-29 02:18:00,
2013-06-28 22:33:00,72.3,71.7,29.58,South,180,0.0,-999.0,98,-99.99,,,0.01,Acu-Link.com,2013-06-29 02:33:00,
2013-06-28 22:49:00,72.5,71.6,29.57,SW,225,0.0,-999.0,97,-99.99,,,0.01,Acu-Link.com,2013-06-29 02:49:00,
2013-06-28 23:04:00,72.5,71.6,29.57,South,180,0.0,-999.0,97,-99.99,,,0.01,Acu-Link.com,2013-06-29 03:04:00,
2013-06-28 23:19:00,72.5,71.6,29.58,West,270,0.0,-999.0,97,-99.99,,,0.01,Acu-Link.com,2013-06-29 03:19:00,
2013-06-28 23:35:00,72.5,71.6,29.58,NW,315,0.0,-999.0,97,-99.99,,,0.01,Acu-Link.com,2013-06-29 03:35:00,
2013-06-28 23:50:00,72.5,71.9,29.59,South,180,0.0,-999.0,98,-99.99,,,0.01,Acu-Link.com,2013-06-29 03:50:00,